Find Starlink 31451

NORAD ID: 59366 Int'l Des: 2024-060 Owner: SPXS Country: US Constellation: starlink operational
LEOCIRCULAR

实时位置

正在加载3D地球...

关于 Starlink 31451

正在加载描述...

即将过境

Passes for default location (London). Set your location on the main map for personalized predictions.

高度历史

Loading altitude history...

两行轨道根数

1 59366U 24060U 26126.47108527 .00000400 00000-0 24041-4 0 9991
2 59366 43.0005 293.2068 0001057 300.0557 60.0189 15.27577973118902
Epoch: May 6, 2026 • Age: 19 hours

当前状态

高度 483.1 km
速度 7.63 km/s
星下点 -4.76°S, 33.02°W
发射日期 Mar 31, 2024
运行时间 2 years
类型 internet

技术详情

分类 Payload
质量 730.00 kg
干质量 700.00 kg
总质量 730.00 kg
长度 0.30 m
直径 4.10 m
跨度 29.00 m
形状 Box + pan
制造商 SPXS
平台类型 Starlink V2M
阶段状态 In Orbit
所有者/国家 SPXS/US

Most Searched